STARLINK-11600, 63114

Orbit data source: Space-Track

STARLINK-11600, 63114 is a payload satellite owned by SpaceX/Seattle (US) in LEO that was launched on Thu, 27 Feb 2025 UTC via an FALCON 9 launch vehicle from the Air Force Eastern Test Range (AFETR). Payload-class satellites include a variety of spacecraft equipped with specific instruments for various scientific and technological missions. These include communications satellites like Starlink; space stations such as the ISS; scientific satellites like the Hubble; Earth observation satellites from companies like Planet Labs, Umbra, and HawkEye 360; GPS; miniature CubeSats for education and research; and military/defense satellites.

Loading next visibility...
Identifier
63114, 2025-039L
Orbit
LEO
Last TLE update
12 hours ago
Origin
Manufacturer
SpaceX/Seattle
Mission
Operational Commercial Communications
Bus & Motor
STARLINK V2M, Unknown motor
Mass
730 kg wet, ~700 kg dry
Launch date (UTC)
2025-02-27 (4 months ago)
Launch vehicle
FALCON 9
Launch site
Air Force Eastern Test Range (AFETR)
Object type
Payload
Rocket body
Debris
Shape & HBR
Box + 2 Pan, 29 m
Radar Cross Section
36.964 m², Large (>1 m²)

Expand to show TLE details & history

TLE from 12 hours ago
0 STARLINK-11600
1 63114U 25039L   25182.70412134  .00140435  00000-0  10782-2 0  9991
2 63114  42.9996 309.5508 0001663 282.7195  77.3487 15.70869456 20140
Epoch: 2025-07-01T16:53Z
TLE epoch observation values (Epoch: 2025-07-01T16:53:56.083Z)
Latitude
-0.00001°
Longitude
136.07135°
Altitude
355.937 km
Speed
7.698 km/s
True Right ascension
20h 38m 12s
True Declination
0° 00' 00"
Sunlit
Object was in full shadow at epoch
Visualization orbit readout
Latitude
-26.11651°
Longitude
-15.32771°
Altitude
362.11 km
Speed
7.693 km/s
Apparent Right ascension
07h 48m 43s
Apparent Declination
-43° 20' 01"
Sunlit
Object is in daylight
Visualization observer readout
Local Sidereal Time
16:12:08
Azimuth
246.776° WSW
Elevation
-50.093°
Doppler factor
1
Orbital elements
Apogee altitude
359.513 km
Perigee altitude
357.272 km
Semi-major axis
6,736.53 km
Eccentricity
0.00017
Inclination
42.9996°
RAAN
309.5508°
Arg. of periapsis
282.7195°
True anomaly
Unknown
Mean anomaly
77.3487°
Eccentric anomaly
Unknown
Mean motion
3.92544 °/min
Orbital period
91.71 mins
BSTAR
0.0010782
Loading maneuver chart data...
Loading SW <> Apogee altitude chart data...
Loading historical data...
Loading historical data...
Loading historical data...
Loading historical data...
Loading historical data...
Loading historical data...
Loading historical data...

STARLINK-11600 Visibility forecast

Observer location: undefined°, undefined°

Span
Click to sort rows by Start time (UTC) header in descending order
Start Az.
Max El. time (UTC)
Max El. Az.
Max El.
End time (UTC)
End Az.
4 mins2025-07-02 11:24:43.197Z195.106° SSW2025-07-02 11:26:43.197Z144.691° SSE20.253°2025-07-02 11:28:43.197Z98.036° ESE
4 mins2025-07-02 13:00:43.197Z259.625° W2025-07-02 13:02:43.197Z33.151° NE43.118°2025-07-02 13:04:43.197Z69.041° E
4 mins2025-07-02 16:13:43.197Z289.58° WNW2025-07-02 16:14:43.197Z294.871° NW43.024°2025-07-02 16:17:43.197Z107.899° ESE
|